Regional Weather Roundup
Issued by NWS Charleston, SC

Current Version | Previous Version | Graphics & Text | Print | Product List | Glossary On
Versions: 1 2 3 4 5 6 7 8 9 10 11 12 13 14 15 16 17 18 19 20 21 22 23 24 25 26 27 28 29 30 31 32 33 34 35 36 37 38 39 40 41 42 43 44 45 46 47 48 49 50
000
ASUS42 KCHS 191012
RWRCHS

REGIONAL WEATHER ROUNDUP
NATIONAL WEATHER SERVICE CHARLESTON SC
500 AM EST SUN FEB 19 2017

NOTE: "FAIR" INDICATES FEW OR NO CLOUDS BELOW 12,000 FEET WITH NO
SIGNIFICANT WEATHER AND/OR OBSTRUCTIONS TO VISIBILITY.

NOT ALL STATIONS ARE QUALITY CONTROLLED. USE DATA WITH CAUTION...
ESPECIALLY DEWPOINT OBSERVATIONS.

SCZ027-030-031-034>040-042>050-191100-
...SOUTHEAST SOUTH CAROLINA...

CITY           SKY/WX    TMP DP  RH WIND       PRES   REMARKS
N CHARLESTON   CLOUDY    49  44  83 W3        29.96R
WATERFRONT PRK   N/A     54  48  80 VRB2      29.95R
MOUNT PLEASANT LGT RAIN  48  46  93 CALM      29.96R
JOHNS ISLAND   FAIR      48  46  93 CALM      29.97R
PINOPOLIS        N/A     54  48  82 W6        29.86R
MONCKS CORNER  FAIR      46  45  93 CALM      29.95S
SUMMERVILLE    FAIR      45  43  93 CALM      29.97R
BEAUFORT MCAS  PTCLDY    50  48  93 SW3       29.98R
BEAUFORT ARPT  FAIR      50  46  87 W7        29.98R
HILTON HEAD IS PTCLDY    50  46  87 CALM      29.99R
WALTERBORO     MOSUNNY   46  45  93 CALM      29.97S
ALLENDALE      FAIR      52  50  93 CALM      29.96S

...SOUTHERN MIDLANDS AND PEE DEE...

CITY           SKY/WX    TMP DP  RH WIND       PRES   REMARKS
GEORGETOWN     FAIR      46  45  93 W3        29.95R
KINGSTREE      FAIR      46  45  93 CALM      29.94R
ORANGEBURG     PTCLDY    51  48  89 NW5       29.96R
BARNWELL       FAIR      52  52 100 CALM      29.97S
AIKEN          FAIR      46  45  93 W5        30.00S
MANNING        FAIR      48  41  76 MISG      29.95R
COLUMBIA       CLOUDY    50  47  89 W3        29.96R
SUMTER         PTCLDY    51  46  81 W10       29.92R
FLORENCE       MOCLDY    50  46  86 NW6       29.93R
MYRTLE BEACH   CLEAR     49  44  83 CALM      29.94R
N MYRTLE BEACH CLEAR     48  47  96 CALM      29.92R

$$

GAZ063-065-086>088-099>101-113>116-118-119-134>141-150-191100-
...SOUTHEAST GEORGIA...

CITY           SKY/WX    TMP DP  RH WIND       PRES   REMARKS
SAVANNAH ARPT  PTCLDY    50  45  83 W3        29.99R
HUNTER AAF     PTCLDY    50  49  97 W3        29.96R
FORT STEWART   PTCLDY    48  46  93 CALM      29.97R
STATESBORO     CLOUDY    50  50 100 CALM      29.99R
SYLVANIA       PTSUNNY  N/A N/A N/A CALM      29.99S
CLAXTON        FAIR     N/A N/A N/A CALM      29.99S HAZE

...CSRA...CENTRAL AND FAR SOUTHEAST GEORGIA...

CITY           SKY/WX    TMP DP  RH WIND       PRES   REMARKS
THOMSON        MOCLDY    48  48 100 CALM      30.03S
AUGUSTA-BUSH   CLOUDY    53  49  86 CALM      29.97S
AUGUSTA-DANIEL PTCLDY    53  47  79 W3        29.98R
SWAINSBORO     FAIR      46  45  93 CALM      30.00R
VIDALIA        CLEAR     50  50 100 CALM      29.99S
EASTMAN        FOG       47  47 100 CALM      30.02R VSB 1/2
HAZLEHURST     FAIR      54  54 100 CALM      29.98S
ALMA           FOG       57  57 100 W6        29.99R VSB 1/4
WAYCROSS       CLOUDY    62  62 100 W7        30.00R FOG
JESUP          FAIR      48  46  93 CALM      30.00R FOG
BAXLEY         FOG       52  52 100 CALM      29.99R VSB 1
BRUNSWICK      MOCLDY    57  55  94 W6        30.00R
SAINT SIMONS   MOCLDY    57  54  89 W5        29.99R

$$

SCZ027-028-034-036>038-045-046-048>050-GAZ119-141-191100-
...LAKE AND SUPPLEMENTAL COASTAL OBSERVATIONS...

STATION/POSITION TIME  TEMP    WIND        PRES    WAVE   SWELL
                       AIR SEA DIR/SP/G            HT/PER HT/PER/DIR
                 (UTC) (F)     (DEG/KT/KT) (MB)    (FT/S) (FT/S/D)
WINYAH BAY       NOT AVBL
LAKE MURRAY      0920   52     290/  2/  8 1014.2R
ACE BASIN NERRS  0845   49        CALM     1014.0
FORT PULASKI     0948   55 59  310/  3/  4 1015.3R
SAPELO ISLAND    0900   57     260/  1     1015.0

$$

ANZ835-935-AMZ111-154-330-350-352-354-370-450-454-472-191100-
...C-MAN AND BUOY OBSERVATIONS...

STATION/POSITION TIME  TEMP    WIND        PRES    WAVE   SWELL
                       AIR SEA DIR/SP/G            HT/PER HT/PER/DIR
                 (UTC) (F)     (DEG/KT/KT) (MB)    (FT/S) (FT/S/D)
BUOY 41004       0850   62 69  310/ 12/ 14 1013.4    3/ 6   2/160/ 6
BUOY 41008       0850   61 61  250/  8/ 10 1014.9    2/ 5   2/120/ 5
FOLLY BEACH CMAN 0900   53     290/  2/  3 1014.6R
CAPERS NEARSHORE 0908   56 59  310/  6/  8 1014.0R
FRIPP NEARSHORE  0908   57 59  320/  6/ 10 1014.3R


STATION/POSITION TIME  TEMP    WIND        PRES    WAVE   SWELL
                       AIR SEA DIR/SP/G            HT/PER HT/PER/DIR
                 (UTC) (F)     (DEG/KT/KT) (MB)    (FT/S) (FT/S/D)
5E ST. MARYS GA  0930      63                N/A     1/ 5
FRYING PAN BUOY  0950   60 64  320/ 14/ 16 1012.5S   2/ 5   2/140/ 6
BUOY 41025       0950   65 68  260/ 12/ 14 1012.4R   3/ 6   2/210/ 6
CAPE LOOKOUT NC  0900   55     270/  8/  9 1012.1F
BUOY 41002       0950   71 71  190/ 17/ 21 1014.0F   5/ 6   2/170/11
BUOY 41010       NOT AVBL
ST AUGUSTINE FL  1000   62 65  310/  4/  5 1016.5R


$$




USA.gov is the U.S. government's official web portal to all federal, state and local government web resources and services.